| time (UTC) | temp F | wind direction | speed MPH | gust MPH | rain 1hr in | rain 24hr in | rain mn in | humidity % | barometer mb |
| 20260507010950 | 59 | 203 | 1.0 | 1.0 | 0.12 | 0.18 | 0.18 | 95 | 1010.8 |
| 20260507010444 | 59 | 203 | 0.0 | 0.0 | 0.00 | 0.16 | 0.16 | 95 | 1010.5 |
| 20260507005942 | 59 | 203 | 0.0 | 0.0 | 0.00 | 0.16 | 0.16 | 95 | 1010.3 |
| 20260507005439 | 59 | 203 | 0.0 | 0.0 | 0.00 | 0.16 | 0.16 | 95 | 1010.4 |
| 20260507004935 | 59 | 203 | 0.0 | 0.0 | 0.00 | 0.16 | 0.16 | 95 | 1010.3 |
| 20260507004432 | 59 | 203 | 1.0 | 0.0 | 0.00 | 0.16 | 0.16 | 95 | 1010.5 |
| 20260507003930 | 59 | 203 | 0.0 | 0.0 | 0.00 | 0.16 | 0.16 | 95 | 1010.4 |
| 20260507003424 | 59 | 203 | 1.0 | 1.0 | 0.00 | 0.16 | 0.16 | 95 | 1010.3 |
| 20260507002920 | 59 | 203 | 1.0 | 1.0 | 0.00 | 0.16 | 0.16 | 95 | 1010.2 |
| 20260507002416 | 59 | 203 | 0.0 | 0.0 | 0.00 | 0.16 | 0.16 | 95 | 1010.2 |
| 20260507001914 | 59 | 203 | 0.0 | 0.0 | 0.00 | 0.16 | 0.16 | 95 | 1010.2 |
| 20260507001410 | 59 | 203 | 0.0 | 0.0 | 0.00 | 0.16 | 0.16 | 95 | 1010.3 |
| 20260507000908 | 59 | 203 | 0.0 | 0.0 | 0.00 | 0.16 | 0.16 | 95 | 1010.1 |
| 20260507000405 | 59 | 203 | 0.0 | 0.0 | 0.00 | 0.16 | 0.16 | 95 | 1010.0 |
| 20260506235859 | 59 | 203 | 0.0 | 0.0 | 0.00 | 0.16 | 0.16 | 95 | 1010.2 |
| 20260506235356 | 59 | 203 | 0.0 | 0.0 | 0.00 | 0.16 | 0.16 | 95 | 1010.2 |
| 20260506234852 | 59 | 203 | 0.0 | 0.0 | 0.00 | 0.16 | 0.16 | 95 | 1009.8 |
| 20260506234350 | 59 | 203 | 0.0 | 0.0 | 0.00 | 0.16 | 0.16 | 95 | 1009.8 |
| 20260506233847 | 59 | 203 | 0.0 | 1.0 | 0.00 | 0.16 | 0.16 | 95 | 1010.0 |
| 20260506233343 | 59 | 203 | 0.0 | 0.0 | 0.00 | 0.16 | 0.16 | 95 | 1009.8 |
| 20260506232841 | 59 | 203 | 1.0 | 1.0 | 0.00 | 0.16 | 0.16 | 95 | 1009.9 |
| 20260506232336 | 59 | 203 | 0.0 | 0.0 | 0.00 | 0.16 | 0.16 | 95 | 1009.9 |
| 20260506231833 | 59 | 203 | 0.0 | 0.0 | 0.00 | 0.16 | 0.16 | 95 | 1010.1 |
| 20260506231330 | 59 | 203 | 1.0 | 1.0 | 0.00 | 0.16 | 0.16 | 95 | 1010.1 |
| 20260506230828 | 59 | 203 | 0.0 | 1.0 | 0.00 | 0.16 | 0.16 | 95 | 1010.0 |
| 20260506230324 | 59 | 203 | 0.0 | 0.0 | 0.00 | 0.16 | 0.16 | 95 | 1010.2 |
| 20260506225820 | 59 | 203 | 1.0 | 1.0 | 0.00 | 0.16 | 0.16 | 95 | 1009.9 |
| 20260506225318 | 59 | 203 | 1.0 | 1.0 | 0.00 | 0.16 | 0.16 | 95 | 1010.1 |
| 20260506224815 | 59 | 203 | 0.0 | 0.0 | 0.00 | 0.16 | 0.16 | 95 | 1009.9 |
| 20260506224312 | 59 | 203 | 0.0 | 0.0 | 0.00 | 0.16 | 0.16 | 95 | 1010.0 |
| 20260506223808 | 59 | 203 | 0.0 | 0.0 | 0.00 | 0.16 | 0.16 | 95 | 1010.1 |
| 20260506223303 | 60 | 203 | 1.0 | 1.0 | 0.00 | 0.16 | 0.16 | 95 | 1010.0 |
| 20260506222801 | 60 | 203 | 1.0 | 1.0 | 0.00 | 0.16 | 0.16 | 94 | 1009.9 |
| 20260506222256 | 60 | 203 | 1.0 | 0.0 | 0.00 | 0.16 | 0.16 | 94 | 1010.0 |
| 20260506221754 | 60 | 203 | 0.0 | 0.0 | 0.00 | 0.16 | 0.16 | 95 | 1010.1 |
| 20260506221252 | 60 | 203 | 0.0 | 0.0 | 0.00 | 0.16 | 0.16 | 95 | 1010.1 |
| 20260506220750 | 60 | 203 | 1.0 | 1.0 | 0.00 | 0.16 | 0.16 | 95 | 1010.1 |
| 20260506220249 | 60 | 203 | 1.0 | 1.0 | 0.00 | 0.16 | 0.16 | 95 | 1010.2 |
| 20260506215747 | 60 | 203 | 1.0 | 1.0 | 0.00 | 0.16 | 0.16 | 95 | 1010.3 |
| 20260506215242 | 60 | 203 | 0.0 | 0.0 | 0.00 | 0.16 | 0.16 | 95 | 1010.2 |
| 20260506214739 | 60 | 203 | 0.0 | 1.0 | 0.00 | 0.16 | 0.16 | 95 | 1010.1 |
| 20260506214236 | 60 | 203 | 1.0 | 1.0 | 0.00 | 0.16 | 0.16 | 95 | 1010.2 |
| 20260506213735 | 60 | 203 | 0.0 | 0.0 | 0.00 | 0.16 | 0.16 | 95 | 1009.9 |
| 20260506213231 | 60 | 203 | 0.0 | 0.0 | 0.00 | 0.16 | 0.16 | 95 | 1010.3 |
| 20260506212728 | 61 | 203 | 1.0 | 1.0 | 0.00 | 0.16 | 0.16 | 95 | 1010.2 |
| 20260506212224 | 61 | 203 | 1.0 | 1.0 | 0.00 | 0.16 | 0.16 | 95 | 1010.4 |
| 20260506211719 | 61 | 203 | 1.0 | 1.0 | 0.00 | 0.16 | 0.16 | 95 | 1010.4 |
| 20260506211216 | 61 | 203 | 2.0 | 2.0 | 0.00 | 0.16 | 0.16 | 95 | 1010.3 |
| 20260506210713 | 61 | 203 | 2.0 | 2.0 | 0.00 | 0.16 | 0.16 | 95 | 1010.4 |
| 20260506210210 | 61 | 203 | 0.0 | 0.0 | 0.00 | 0.16 | 0.16 | 95 | 1010.4 |
| 20260506205708 | 61 | 203 | 1.0 | 1.0 | 0.00 | 0.16 | 0.16 | 95 | 1010.4 |
| 20260506205208 | 61 | 203 | 1.0 | 1.0 | 0.05 | 0.16 | 0.16 | 95 | 1010.5 |
| 20260506204705 | 61 | 203 | 0.0 | 1.0 | 0.05 | 0.16 | 0.16 | 95 | 1010.3 |
| 20260506204202 | 61 | 203 | 1.0 | 1.0 | 0.00 | 0.15 | 0.15 | 95 | 1010.5 |
| 20260506203700 | 61 | 203 | 1.0 | 1.0 | 0.00 | 0.15 | 0.15 | 95 | 1010.3 |
| 20260506203157 | 61 | 203 | 1.0 | 1.0 | 0.00 | 0.15 | 0.15 | 95 | 1010.5 |
| 20260506202655 | 61 | 203 | 1.0 | 1.0 | 0.07 | 0.15 | 0.15 | 95 | 1010.5 |
| 20260506202151 | 61 | 203 | 1.0 | 1.0 | 0.07 | 0.15 | 0.15 | 95 | 1010.4 |
| 20260506201648 | 61 | 203 | 1.0 | 1.0 | 0.12 | 0.15 | 0.15 | 95 | 1010.5 |
| 20260506201144 | 61 | 203 | 1.0 | 1.0 | 0.12 | 0.14 | 0.14 | 95 | 1010.5 |
| 20260506200641 | 61 | 203 | 1.0 | 1.0 | 0.07 | 0.13 | 0.13 | 95 | 1010.8 |
| 20260506200138 | 61 | 199 | 1.0 | 1.0 | 0.00 | 0.12 | 0.12 | 95 | 1010.9 |
| 20260506195635 | 61 | 199 | 0.0 | 0.0 | 0.07 | 0.12 | 0.12 | 94 | 1010.6 |
| 20260506195131 | 61 | 199 | 1.0 | 1.0 | 0.12 | 0.12 | 0.12 | 94 | 1010.9 |
| 20260506194629 | 61 | 199 | 0.0 | 0.0 | 0.05 | 0.11 | 0.11 | 94 | 1011.0 |
| 20260506194125 | 61 | 199 | 1.0 | 1.0 | 0.07 | 0.10 | 0.10 | 94 | 1011.1 |
| 20260506193623 | 61 | 199 | 1.0 | 1.0 | 0.07 | 0.10 | 0.10 | 94 | 1010.9 |
| 20260506193120 | 61 | 199 | 1.0 | 1.0 | 0.00 | 0.09 | 0.09 | 94 | 1011.1 |
| 20260506192616 | 61 | 199 | 1.0 | 1.0 | 0.00 | 0.09 | 0.09 | 94 | 1011.1 |
| 20260506192112 | 61 | 199 | 0.0 | 0.0 | 0.00 | 0.09 | 0.09 | 94 | 1011.3 |
| 20260506191609 | 61 | 199 | 0.0 | 0.0 | 0.00 | 0.09 | 0.09 | 94 | 1011.0 |
| 20260506191105 | 61 | 199 | 1.0 | 1.0 | 0.00 | 0.09 | 0.09 | 94 | 1011.0 |
| 20260506190603 | 61 | 199 | 0.0 | 0.0 | 0.00 | 0.09 | 0.09 | 94 | 1011.1 |
| 20260506190059 | 61 | 199 | 0.0 | 0.0 | 0.00 | 0.09 | 0.09 | 94 | 1011.0 |
| 20260506185556 | 61 | 199 | 0.0 | 0.0 | 0.05 | 0.09 | 0.09 | 94 | 1011.2 |
| 20260506185053 | 61 | 199 | 0.0 | 1.0 | 0.05 | 0.09 | 0.09 | 93 | 1011.7 |
| 20260506184550 | 61 | 199 | 1.0 | 1.0 | 0.00 | 0.08 | 0.08 | 93 | 1011.7 |
| 20260506184048 | 61 | 199 | 1.0 | 1.0 | 0.07 | 0.08 | 0.08 | 93 | 1011.5 |
| 20260506183543 | 61 | 199 | 1.0 | 1.0 | 0.07 | 0.08 | 0.08 | 93 | 1011.8 |
| 20260506183040 | 61 | 199 | 1.0 | 1.0 | 0.07 | 0.08 | 0.08 | 93 | 1012.3 |
| 20260506182537 | 61 | 199 | 0.0 | 0.0 | 0.00 | 0.07 | 0.07 | 93 | 1012.1 |
| 20260506182035 | 61 | 199 | 1.0 | 1.0 | 0.05 | 0.07 | 0.07 | 93 | 1012.0 |
| 20260506181533 | 61 | 199 | 0.0 | 0.0 | 0.05 | 0.07 | 0.07 | 93 | 1012.3 |
| 20260506181029 | 61 | 199 | 0.0 | 0.0 | 0.07 | 0.06 | 0.06 | 92 | 1012.2 |
| 20260506180525 | 61 | 199 | 0.0 | 0.0 | 0.07 | 0.06 | 0.06 | 91 | 1012.2 |
| 20260506180022 | 61 | 199 | 1.0 | 1.0 | 0.05 | 0.05 | 0.05 | 91 | 1012.4 |
| 20260506175519 | 61 | 199 | 0.0 | 0.0 | 0.05 | 0.05 | 0.05 | 90 | 1012.5 |
| 20260506175015 | 61 | 199 | 1.0 | 0.0 | 0.07 | 0.04 | 0.04 | 88 | 1012.5 |
| 20260506174514 | 62 | 199 | 1.0 | 2.0 | 0.07 | 0.04 | 0.04 | 88 | 1012.7 |
| 20260506174009 | 62 | 199 | 0.0 | 0.0 | 0.05 | 0.03 | 0.03 | 87 | 1012.5 |
| 20260506173508 | 62 | 199 | 0.0 | 0.0 | 0.12 | 0.03 | 0.03 | 85 | 1012.6 |
| 20260506173004 | 63 | 199 | 1.0 | 1.0 | 0.07 | 0.02 | 0.02 | 83 | 1012.6 |
| 20260506172502 | 63 | 199 | 1.0 | 1.0 | 0.00 | 0.01 | 0.01 | 82 | 1012.4 |
| 20260506171957 | 64 | 199 | 2.0 | 1.0 | 0.05 | 0.01 | 0.01 | 78 | 1012.3 |
| 20260506171455 | 65 | 199 | 2.0 | 2.0 | 0.05 | 0.01 | 0.01 | 76 | 1012.4 |
| 20260506170953 | 67 | 199 | 0.0 | 0.0 | 0.00 | 0.00 | 0.00 | 70 | 1012.0 |
| 20260506170449 | 68 | 199 | 1.0 | 1.0 | 0.00 | 0.00 | 0.00 | 65 | 1012.1 |
| 20260506165948 | 68 | 199 | 1.0 | 1.0 | 0.00 | 0.00 | 0.00 | 63 | 1012.1 |
| 20260506165447 | 68 | 199 | 1.0 | 1.0 | 0.00 | 0.00 | 0.00 | 62 | 1012.3 |
| 20260506164942 | 69 | 199 | 1.0 | 1.0 | 0.00 | 0.00 | 0.00 | 61 | 1012.1 |
| 20260506164439 | 69 | 199 | 1.0 | 1.0 | 0.00 | 0.00 | 0.00 | 62 | 1012.2 |
| 20260506163937 | 69 | 199 | 1.0 | 1.0 | 0.00 | 0.00 | 0.00 | 61 | 1012.2 |
| 20260506163432 | 69 | 199 | 1.0 | 1.0 | 0.00 | 0.00 | 0.00 | 62 | 1012.4 |
| 20260506162927 | 69 | 199 | 1.0 | 2.0 | 0.00 | 0.00 | 0.00 | 61 | 1012.3 |
| 20260506162425 | 69 | 199 | 1.0 | 2.0 | 0.00 | 0.00 | 0.00 | 61 | 1012.5 |
| 20260506161922 | 69 | 199 | 1.0 | 1.0 | 0.00 | 0.00 | 0.00 | 62 | 1012.4 |
| 20260506161420 | 69 | 199 | 2.0 | 2.0 | 0.00 | 0.00 | 0.00 | 63 | 1012.3 |
| 20260506160917 | 68 | 199 | 1.0 | 1.0 | 0.00 | 0.00 | 0.00 | 63 | 1012.3 |
| 20260506160414 | 68 | 199 | 0.0 | 1.0 | 0.00 | 0.00 | 0.00 | 65 | 1012.6 |
| 20260506155912 | 68 | 199 | 1.0 | 1.0 | 0.00 | 0.00 | 0.00 | 64 | 1012.8 |
| 20260506155408 | 68 | 199 | 0.0 | 0.0 | 0.00 | 0.00 | 0.00 | 66 | 1012.9 |
| 20260506153525 | 68 | 204 | 1.0 | 1.0 | 0.00 | 0.00 | 0.00 | 64 | 1013.4 |
| 20260506153022 | 68 | 204 | 2.0 | 2.0 | 0.00 | 0.00 | 0.00 | 63 | 1013.3 |
| 20260506152519 | 68 | 204 | 0.0 | 0.0 | 0.00 | 0.00 | 0.00 | 64 | 1013.4 |
| 20260506152017 | 67 | 204 | 0.0 | 0.0 | 0.00 | 0.00 | 0.00 | 64 | 1013.6 |
| 20260506151514 | 67 | 204 | 3.0 | 4.0 | 0.00 | 0.00 | 0.00 | 68 | 1013.4 |
| 20260506151012 | 66 | 204 | 0.0 | 0.0 | 0.00 | 0.00 | 0.00 | 73 | 1013.3 |
| 20260506150508 | 67 | 204 | 1.0 | 1.0 | 0.00 | 0.00 | 0.00 | 71 | 1013.6 |
| 20260506150005 | 67 | 204 | 0.0 | 0.0 | 0.00 | 0.00 | 0.00 | 72 | 1013.5 |
| 20260506145501 | 67 | 204 | 1.0 | 1.0 | 0.00 | 0.00 | 0.00 | 70 | 1013.3 |
| 20260506144959 | 67 | 204 | 0.0 | 0.0 | 0.00 | 0.00 | 0.00 | 70 | 1013.4 |
| 20260506144455 | 68 | 204 | 1.0 | 1.0 | 0.00 | 0.00 | 0.00 | 69 | 1013.4 |
| 20260506143953 | 68 | 204 | 1.0 | 1.0 | 0.00 | 0.00 | 0.00 | 67 | 1013.6 |
| 20260506143450 | 68 | 204 | 1.0 | 1.0 | 0.00 | 0.00 | 0.00 | 69 | 1013.3 |
| 20260506142949 | 68 | 204 | 1.0 | 1.0 | 0.00 | 0.00 | 0.00 | 68 | 1013.4 |
| 20260506142446 | 68 | 204 | 2.0 | 2.0 | 0.00 | 0.00 | 0.00 | 67 | 1013.3 |
| 20260506141944 | 68 | 204 | 1.0 | 1.0 | 0.00 | 0.00 | 0.00 | 68 | 1013.2 |
| 20260506141442 | 68 | 204 | 0.0 | 0.0 | 0.00 | 0.00 | 0.00 | 71 | 1013.2 |
| 20260506140940 | 67 | 204 | 1.0 | 1.0 | 0.00 | 0.00 | 0.00 | 69 | 1013.3 |
| 20260506140437 | 66 | 204 | 0.0 | 0.0 | 0.00 | 0.00 | 0.00 | 70 | 1013.4 |
| 20260506135933 | 66 | 204 | 1.0 | 1.0 | 0.00 | 0.00 | 0.00 | 73 | 1013.3 |
| 20260506135431 | 65 | 204 | 0.0 | 0.0 | 0.00 | 0.00 | 0.00 | 73 | 1013.4 |
| 20260506134927 | 64 | 204 | 0.0 | 0.0 | 0.00 | 0.00 | 0.00 | 72 | 1013.3 |
| 20260506134423 | 64 | 204 | 0.0 | 0.0 | 0.00 | 0.00 | 0.00 | 77 | 1013.5 |
| 20260506133920 | 63 | 204 | 1.0 | 1.0 | 0.00 | 0.00 | 0.00 | 78 | 1013.5 |
| 20260506133417 | 63 | 204 | 1.0 | 1.0 | 0.00 | 0.00 | 0.00 | 77 | 1013.8 |
| 20260506132914 | 63 | 204 | 0.0 | 1.0 | 0.00 | 0.00 | 0.00 | 78 | 1013.6 |
| 20260506132411 | 62 | 204 | 0.0 | 0.0 | 0.00 | 0.00 | 0.00 | 77 | 1013.8 |
| 20260506131908 | 62 | 204 | 0.0 | 0.0 | 0.00 | 0.00 | 0.00 | 80 | 1013.8 |
| 20260506131404 | 62 | 204 | 0.0 | 0.0 | 0.00 | 0.00 | 0.00 | 79 | 1013.8 |
| 20260506130902 | 62 | 204 | 0.0 | 0.0 | 0.00 | 0.00 | 0.00 | 81 | 1014.2 |
| 20260506130358 | 61 | 204 | 0.0 | 0.0 | 0.00 | 0.00 | 0.00 | 82 | 1013.9 |
| 20260506125856 | 61 | 204 | 0.0 | 0.0 | 0.00 | 0.00 | 0.00 | 81 | 1013.8 |
| 20260506125355 | 61 | 204 | 0.0 | 0.0 | 0.00 | 0.00 | 0.00 | 81 | 1014.2 |
| 20260506124852 | 61 | 204 | 1.0 | 1.0 | 0.00 | 0.00 | 0.00 | 83 | 1014.0 |
| 20260506124349 | 60 | 204 | 0.0 | 0.0 | 0.00 | 0.00 | 0.00 | 82 | 1014.1 |
| 20260506123847 | 60 | 204 | 0.0 | 0.0 | 0.00 | 0.00 | 0.00 | 83 | 1013.9 |
| 20260506123345 | 60 | 204 | 0.0 | 0.0 | 0.00 | 0.00 | 0.00 | 84 | 1014.0 |
| 20260506122842 | 60 | 204 | 0.0 | 0.0 | 0.00 | 0.00 | 0.00 | 83 | 1014.1 |
| 20260506122339 | 60 | 204 | 0.0 | 0.0 | 0.00 | 0.00 | 0.00 | 84 | 1014.0 |
| 20260506121837 | 59 | 204 | 1.0 | 1.0 | 0.00 | 0.00 | 0.00 | 84 | 1013.9 |
| 20260506121334 | 59 | 204 | 0.0 | 0.0 | 0.00 | 0.00 | 0.00 | 83 | 1014.0 |
| 20260506120831 | 59 | 204 | 0.0 | 0.0 | 0.00 | 0.00 | 0.00 | 82 | 1014.1 |
| 20260506120329 | 59 | 204 | 1.0 | 1.0 | 0.00 | 0.00 | 0.00 | 85 | 1014.1 |
| 20260506115826 | 59 | 204 | 1.0 | 1.0 | 0.00 | 0.00 | 0.00 | 84 | 1014.2 |
| 20260506115324 | 58 | 204 | 0.0 | 0.0 | 0.00 | 0.00 | 0.00 | 86 | 1014.4 |
| 20260506114821 | 58 | 204 | 0.0 | 0.0 | 0.00 | 0.00 | 0.00 | 87 | 1014.4 |
| 20260506114319 | 57 | 204 | 0.0 | 0.0 | 0.00 | 0.00 | 0.00 | 88 | 1014.2 |
| 20260506113817 | 57 | 204 | 0.0 | 0.0 | 0.00 | 0.00 | 0.00 | 88 | 1014.4 |
| 20260506113315 | 57 | 204 | 0.0 | 0.0 | 0.00 | 0.00 | 0.00 | 87 | 1014.2 |
| 20260506112811 | 57 | 204 | 0.0 | 0.0 | 0.00 | 0.00 | 0.00 | 86 | 1014.2 |
| 20260506112308 | 56 | 204 | 0.0 | 0.0 | 0.00 | 0.00 | 0.00 | 87 | 1014.3 |
| 20260506111806 | 56 | 204 | 0.0 | 0.0 | 0.00 | 0.00 | 0.00 | 87 | 1014.4 |
| 20260506111304 | 56 | 204 | 0.0 | 0.0 | 0.00 | 0.00 | 0.00 | 87 | 1014.3 |
| 20260506110801 | 55 | 204 | 0.0 | 0.0 | 0.00 | 0.00 | 0.00 | 88 | 1014.3 |
| 20260506110258 | 55 | 204 | 0.0 | 0.0 | 0.00 | 0.00 | 0.00 | 88 | 1014.3 |
| 20260506105754 | 55 | 204 | 0.0 | 0.0 | 0.00 | 0.00 | 0.00 | 88 | 1014.5 |
| 20260506105251 | 54 | 204 | 0.0 | 0.0 | 0.00 | 0.00 | 0.00 | 88 | 1014.4 |
| 20260506104749 | 54 | 204 | 0.0 | 0.0 | 0.00 | 0.00 | 0.00 | 88 | 1014.4 |
| 20260506104247 | 54 | 204 | 0.0 | 0.0 | 0.00 | 0.00 | 0.00 | 89 | 1014.6 |
| 20260506103744 | 54 | 204 | 0.0 | 0.0 | 0.00 | 0.00 | 0.00 | 88 | 1014.7 |
| 20260506103241 | 54 | 204 | 0.0 | 0.0 | 0.00 | 0.00 | 0.00 | 89 | 1014.3 |
| 20260506102738 | 54 | 204 | 0.0 | 0.0 | 0.00 | 0.00 | 0.00 | 89 | 1014.5 |
| 20260506102237 | 54 | 204 | 0.0 | 0.0 | 0.00 | 0.00 | 0.00 | 89 | 1014.5 |
| 20260506101733 | 54 | 204 | 0.0 | 0.0 | 0.00 | 0.00 | 0.00 | 89 | 1014.2 |
| 20260506101230 | 54 | 204 | 0.0 | 0.0 | 0.00 | 0.00 | 0.00 | 89 | 1014.2 |
| 20260506100728 | 54 | 204 | 0.0 | 0.0 | 0.00 | 0.00 | 0.00 | 89 | 1014.6 |
| 20260506100226 | 54 | 204 | 0.0 | 0.0 | 0.00 | 0.00 | 0.00 | 89 | 1014.2 |
| 20260506095724 | 54 | 204 | 0.0 | 0.0 | 0.00 | 0.00 | 0.00 | 89 | 1014.4 |
| 20260506095220 | 54 | 204 | 0.0 | 0.0 | 0.00 | 0.00 | 0.00 | 89 | 1014.1 |
| 20260506094717 | 54 | 204 | 0.0 | 0.0 | 0.00 | 0.00 | 0.00 | 89 | 1014.3 |
| 20260506094215 | 54 | 204 | 0.0 | 0.0 | 0.00 | 0.00 | 0.00 | 89 | 1014.2 |
| 20260506093714 | 54 | 204 | 0.0 | 0.0 | 0.00 | 0.00 | 0.00 | 89 | 1014.5 |
| 20260506093210 | 54 | 204 | 0.0 | 0.0 | 0.00 | 0.00 | 0.00 | 89 | 1014.4 |
| 20260506092708 | 54 | 204 | 0.0 | 0.0 | 0.00 | 0.00 | 0.00 | 89 | 1014.3 |
| 20260506092205 | 54 | 204 | 0.0 | 0.0 | 0.00 | 0.00 | 0.00 | 89 | 1014.4 |
| 20260506091703 | 54 | 204 | 0.0 | 0.0 | 0.00 | 0.00 | 0.00 | 88 | 1014.2 |
| 20260506091200 | 54 | 204 | 0.0 | 0.0 | 0.00 | 0.00 | 0.00 | 88 | 1014.1 |
| 20260506090658 | 54 | 204 | 0.0 | 0.0 | 0.00 | 0.00 | 0.00 | 88 | 1014.4 |
| 20260506090154 | 54 | 204 | 0.0 | 0.0 | 0.00 | 0.00 | 0.00 | 88 | 1014.3 |
| 20260506085651 | 54 | 204 | 0.0 | 0.0 | 0.00 | 0.00 | 0.00 | 88 | 1014.3 |
| 20260506085147 | 54 | 204 | 0.0 | 0.0 | 0.00 | 0.00 | 0.00 | 88 | 1014.3 |
| 20260506084644 | 54 | 204 | 0.0 | 0.0 | 0.00 | 0.00 | 0.00 | 88 | 1014.4 |
| 20260506084141 | 54 | 204 | 0.0 | 0.0 | 0.00 | 0.00 | 0.00 | 88 | 1014.1 |
| 20260506083638 | 55 | 204 | 0.0 | 0.0 | 0.00 | 0.00 | 0.00 | 88 | 1014.4 |
| 20260506083136 | 55 | 204 | 0.0 | 0.0 | 0.00 | 0.00 | 0.00 | 87 | 1014.2 |
| 20260506082632 | 55 | 204 | 0.0 | 0.0 | 0.00 | 0.00 | 0.00 | 87 | 1014.4 |
| 20260506082128 | 55 | 204 | 0.0 | 0.0 | 0.00 | 0.00 | 0.00 | 87 | 1014.4 |
| 20260506081626 | 55 | 204 | 0.0 | 0.0 | 0.00 | 0.00 | 0.00 | 87 | 1014.4 |
| 20260506081123 | 55 | 204 | 0.0 | 0.0 | 0.00 | 0.00 | 0.00 | 87 | 1014.2 |
| 20260506080621 | 55 | 204 | 0.0 | 0.0 | 0.00 | 0.00 | 0.00 | 87 | 1014.4 |
| 20260506080118 | 55 | 204 | 0.0 | 0.0 | 0.00 | 0.00 | 0.00 | 87 | 1014.0 |
| 20260506073101 | 57 | 204 | 0.0 | 0.0 | 0.00 | 0.00 | 0.00 | 86 | 1014.2 |
| 20260506072558 | 57 | 204 | 0.0 | 0.0 | 0.00 | 0.00 | 0.00 | 85 | 1014.3 |
| 20260506072056 | 57 | 204 | 0.0 | 0.0 | 0.00 | 0.00 | 0.00 | 85 | 1014.3 |
| 20260506071553 | 57 | 204 | 0.0 | 0.0 | 0.00 | 0.00 | 0.00 | 85 | 1014.2 |
| 20260506071051 | 57 | 204 | 0.0 | 0.0 | 0.00 | 0.00 | 0.00 | 85 | 1014.3 |
| 20260506070548 | 57 | 204 | 0.0 | 0.0 | 0.00 | 0.00 | 0.00 | 85 | 1014.2 |
| 20260506062022 | 58 | 204 | 0.0 | 0.0 | 0.00 | 0.00 | 0.00 | 84 | 1013.8 |
| 20260506061518 | 58 | 204 | 0.0 | 0.0 | 0.00 | 0.00 | 0.00 | 83 | 1014.1 |
| 20260506061016 | 58 | 204 | 0.0 | 0.0 | 0.00 | 0.00 | 0.00 | 82 | 1013.8 |
| 20260506060514 | 58 | 204 | 0.0 | 0.0 | 0.00 | 0.00 | 0.00 | 82 | 1013.8 |
| 20260506050943 | 59 | 204 | 0.0 | 0.0 | 0.00 | 0.00 | 0.00 | 81 | 1014.1 |
| 20260506050440 | 60 | 204 | 0.0 | 0.0 | 0.00 | 0.00 | 0.00 | 80 | 1013.9 |
| 20260506044931 | 60 | 204 | 0.0 | 0.0 | 0.00 | 0.00 | 0.00 | 77 | 1014.2 |
| 20260506044429 | 61 | 204 | 1.0 | 1.0 | 0.00 | 0.00 | 0.00 | 77 | 1014.1 |
| 20260506043925 | 61 | 204 | 0.0 | 0.0 | 0.00 | 0.00 | 0.00 | 74 | 1014.1 |
| 20260506043423 | 62 | 204 | 0.0 | 1.0 | 0.00 | 0.00 | 0.00 | 74 | 1014.1 |
| 20260506042921 | 62 | 204 | 0.0 | 0.0 | 0.00 | 0.00 | 0.00 | 71 | 1014.0 |
| 20260506042420 | 62 | 204 | 0.0 | 0.0 | 0.00 | 0.00 | 0.00 | 71 | 1014.2 |
| 20260506041918 | 62 | 204 | 0.0 | 0.0 | 0.00 | 0.00 | 0.00 | 72 | 1014.2 |
| 20260506041415 | 62 | 204 | 0.0 | 0.0 | 0.00 | 0.00 | 0.00 | 75 | 1014.3 |
| 20260506040912 | 62 | 204 | 1.0 | 1.0 | 0.00 | 0.00 | 0.00 | 73 | 1014.2 |
| 20260506040409 | 62 | 204 | 1.0 | 1.0 | 0.00 | 0.00 | 0.00 | 74 | 1014.3 |
| 20260506035905 | 62 | 204 | 1.0 | 1.0 | 0.00 | 0.01 | 0.01 | 73 | 1014.0 |
| 20260506035403 | 62 | 204 | 1.0 | 1.0 | 0.00 | 0.01 | 0.01 | 74 | 1014.2 |
| 20260506034900 | 61 | 204 | 2.0 | 2.0 | 0.00 | 0.01 | 0.01 | 79 | 1014.0 |
| 20260506034357 | 61 | 204 | 1.0 | 1.0 | 0.00 | 0.01 | 0.01 | 80 | 1014.0 |
| 20260506033854 | 61 | 204 | 1.0 | 1.0 | 0.00 | 0.01 | 0.01 | 80 | 1013.9 |
| 20260506033351 | 60 | 204 | 0.0 | 0.0 | 0.00 | 0.01 | 0.01 | 80 | 1013.8 |
| 20260506032848 | 59 | 204 | 0.0 | 0.0 | 0.00 | 0.01 | 0.01 | 85 | 1014.0 |
| 20260506032344 | 59 | 204 | 0.0 | 0.0 | 0.00 | 0.01 | 0.01 | 90 | 1014.1 |
| 20260506031841 | 59 | 204 | 0.0 | 0.0 | 0.00 | 0.01 | 0.01 | 91 | 1014.1 |
| 20260506031339 | 59 | 204 | 0.0 | 0.0 | 0.00 | 0.01 | 0.01 | 91 | 1014.1 |
| 20260506030836 | 59 | 204 | 0.0 | 0.0 | 0.00 | 0.01 | 0.01 | 91 | 1014.1 |
| 20260506030335 | 58 | 204 | 0.0 | 0.0 | 0.00 | 0.01 | 0.01 | 91 | 1014.1 |
| 20260506025831 | 59 | 204 | 0.0 | 0.0 | 0.00 | 0.01 | 0.01 | 91 | 1014.0 |
| 20260506025327 | 59 | 204 | 0.0 | 0.0 | 0.00 | 0.01 | 0.01 | 91 | 1013.9 |
| 20260506024824 | 59 | 204 | 0.0 | 0.0 | 0.00 | 0.01 | 0.01 | 91 | 1014.2 |
| 20260506024321 | 59 | 204 | 0.0 | 0.0 | 0.00 | 0.01 | 0.01 | 91 | 1013.9 |
| 20260506023817 | 59 | 204 | 0.0 | 0.0 | 0.00 | 0.01 | 0.01 | 91 | 1014.0 |
| 20260506023314 | 59 | 204 | 0.0 | 0.0 | 0.00 | 0.01 | 0.01 | 90 | 1013.9 |
| 20260506022811 | 59 | 204 | 0.0 | 0.0 | 0.00 | 0.01 | 0.01 | 90 | 1013.8 |
| 20260506022309 | 60 | 204 | 0.0 | 0.0 | 0.00 | 0.01 | 0.01 | 90 | 1013.8 |
| 20260506021807 | 60 | 204 | 0.0 | 0.0 | 0.00 | 0.01 | 0.01 | 90 | 1014.0 |
| 20260506021303 | 60 | 204 | 0.0 | 0.0 | 0.00 | 0.01 | 0.01 | 90 | 1014.1 |
| 20260506020800 | 60 | 204 | 0.0 | 0.0 | 0.00 | 0.01 | 0.01 | 90 | 1014.0 |
| 20260506020258 | 60 | 204 | 0.0 | 0.0 | 0.00 | 0.01 | 0.01 | 89 | 1014.1 |
| 20260506015755 | 61 | 204 | 0.0 | 0.0 | 0.00 | 0.01 | 0.01 | 88 | 1014.0 |
| 20260506015252 | 61 | 204 | 0.0 | 0.0 | 0.00 | 0.01 | 0.01 | 89 | 1013.8 |
| 20260506014749 | 61 | 204 | 0.0 | 0.0 | 0.00 | 0.01 | 0.01 | 87 | 1014.1 |
| 20260506014246 | 61 | 204 | 0.0 | 0.0 | 0.00 | 0.01 | 0.01 | 89 | 1013.9 |
| 20260506013743 | 61 | 204 | 0.0 | 0.0 | 0.00 | 0.01 | 0.01 | 88 | 1014.3 |
| 20260506013240 | 62 | 204 | 0.0 | 0.0 | 0.00 | 0.01 | 0.01 | 86 | 1014.1 |
| 20260506012736 | 62 | 204 | 0.0 | 0.0 | 0.00 | 0.01 | 0.01 | 87 | 1014.1 |
| 20260506012234 | 62 | 204 | 0.0 | 0.0 | 0.00 | 0.01 | 0.01 | 87 | 1014.0 |
| 20260506011731 | 62 | 204 | 0.0 | 0.0 | 0.00 | 0.01 | 0.01 | 88 | 1013.8 |
| 20260506011227 | 62 | 204 | 0.0 | 0.0 | 0.00 | 0.01 | 0.01 | 86 | 1014.2 |